Year,Month,Day,Hour,Minute,Value (Times are PST for temperature in C)
2017,07,12,00,00,13.90
2017,07,12,00,01,13.90
2017,07,12,00,02,13.90
2017,07,12,00,03,13.90
2017,07,12,00,04,13.90
2017,07,12,00,05,13.90
2017,07,12,00,06,13.90
2017,07,12,00,07,13.90
2017,07,12,00,08,13.90
2017,07,12,00,09,13.90
2017,07,12,00,10,13.90
2017,07,12,00,11,13.90
2017,07,12,00,12,13.90
2017,07,12,00,13,13.90
2017,07,12,00,14,13.90
2017,07,12,00,15,13.80
2017,07,12,00,16,13.80
2017,07,12,00,17,13.80
2017,07,12,00,18,13.80
2017,07,12,00,19,13.80
2017,07,12,00,20,13.80
2017,07,12,00,21,13.80
2017,07,12,00,22,13.80
2017,07,12,00,23,13.80
2017,07,12,00,24,13.80
2017,07,12,00,25,13.80
2017,07,12,00,26,13.80
2017,07,12,00,27,13.80
2017,07,12,00,28,13.80
2017,07,12,00,29,13.80
2017,07,12,00,30,13.70
2017,07,12,00,31,13.70
2017,07,12,00,32,13.70
2017,07,12,00,33,13.70
2017,07,12,00,34,13.70
2017,07,12,00,35,13.70
2017,07,12,00,36,13.70
2017,07,12,00,37,13.70
2017,07,12,00,38,13.70
2017,07,12,00,39,13.70
2017,07,12,00,40,13.70
2017,07,12,00,41,13.70
2017,07,12,00,42,13.70
2017,07,12,00,43,13.70
2017,07,12,00,44,13.60
2017,07,12,00,45,13.60
2017,07,12,00,46,13.60
2017,07,12,00,47,13.60
2017,07,12,00,48,13.60
2017,07,12,00,49,13.60
2017,07,12,00,50,13.60
2017,07,12,00,51,13.60
2017,07,12,00,52,13.60
2017,07,12,00,53,13.60
2017,07,12,00,54,13.60
2017,07,12,00,55,13.50
2017,07,12,00,56,13.50
2017,07,12,00,57,13.50
2017,07,12,00,58,13.50
2017,07,12,00,59,13.50
2017,07,12,01,00,13.50
2017,07,12,01,01,13.50
2017,07,12,01,02,13.50
2017,07,12,01,03,13.50
2017,07,12,01,04,13.50
2017,07,12,01,05,13.50
2017,07,12,01,06,13.50
2017,07,12,01,07,13.50
2017,07,12,01,08,13.50
2017,07,12,01,09,13.50
2017,07,12,01,10,13.50
2017,07,12,01,11,13.50
2017,07,12,01,12,13.50
2017,07,12,01,13,13.50
2017,07,12,01,14,13.50
2017,07,12,01,15,13.50
2017,07,12,01,16,13.50
2017,07,12,01,17,13.50
2017,07,12,01,18,13.50
2017,07,12,01,19,13.50
2017,07,12,01,20,13.50
2017,07,12,01,21,13.50
2017,07,12,01,22,13.50
2017,07,12,01,23,13.50
2017,07,12,01,24,13.50
2017,07,12,01,25,13.50
2017,07,12,01,26,13.50
2017,07,12,01,27,13.50
2017,07,12,01,28,13.50
2017,07,12,01,29,13.40
2017,07,12,01,30,13.40
2017,07,12,01,31,13.40
2017,07,12,01,32,13.40
2017,07,12,01,33,13.40
2017,07,12,01,34,13.40
2017,07,12,01,35,13.40
2017,07,12,01,36,13.40
2017,07,12,01,37,13.40
2017,07,12,01,38,13.40
2017,07,12,01,39,13.40
2017,07,12,01,40,13.40
2017,07,12,01,41,13.40
2017,07,12,01,42,13.40
2017,07,12,01,43,13.40
2017,07,12,01,44,13.30
2017,07,12,01,45,13.30
2017,07,12,01,46,13.30
2017,07,12,01,47,13.30
2017,07,12,01,48,13.30
2017,07,12,01,49,13.30
2017,07,12,01,50,13.30
2017,07,12,01,51,13.30
2017,07,12,01,52,13.30
2017,07,12,01,53,13.30
2017,07,12,01,54,13.20
2017,07,12,01,55,13.20
2017,07,12,01,56,13.20
2017,07,12,01,57,13.20
2017,07,12,01,58,13.20
2017,07,12,01,59,13.20
2017,07,12,02,00,13.20
2017,07,12,02,01,13.20
2017,07,12,02,02,13.10
2017,07,12,02,03,13.10
2017,07,12,02,04,13.10
2017,07,12,02,05,13.10
2017,07,12,02,06,13.10
2017,07,12,02,07,13.10
2017,07,12,02,08,13.10
2017,07,12,02,09,13.10
2017,07,12,02,10,13.10
2017,07,12,02,11,13.10
2017,07,12,02,12,13.10
2017,07,12,02,13,13.10
2017,07,12,02,14,13.00
2017,07,12,02,15,13.10
2017,07,12,02,16,13.10
2017,07,12,02,17,13.10
2017,07,12,02,18,13.00
2017,07,12,02,19,13.00
2017,07,12,02,20,13.00
2017,07,12,02,21,13.00
2017,07,12,02,22,13.00
2017,07,12,02,23,13.00
2017,07,12,02,24,13.00
2017,07,12,02,25,13.00
2017,07,12,02,26,13.00
2017,07,12,02,27,13.00
2017,07,12,02,28,13.00
2017,07,12,02,29,13.00
2017,07,12,02,30,12.90
2017,07,12,02,31,12.90
2017,07,12,02,32,12.90
2017,07,12,02,33,12.90
2017,07,12,02,34,12.90
2017,07,12,02,35,12.90
2017,07,12,02,36,12.90
2017,07,12,02,37,12.90
2017,07,12,02,38,12.90
2017,07,12,02,39,12.90
2017,07,12,02,40,12.80
2017,07,12,02,41,12.80
2017,07,12,02,42,12.80
2017,07,12,02,43,12.80
2017,07,12,02,44,12.80
2017,07,12,02,45,12.80
2017,07,12,02,46,12.80
2017,07,12,02,47,12.80
2017,07,12,02,48,12.80
2017,07,12,02,49,12.80
2017,07,12,02,50,12.80
2017,07,12,02,51,12.80
2017,07,12,02,52,12.80
2017,07,12,02,53,12.90
2017,07,12,02,54,12.90
2017,07,12,02,55,12.90
2017,07,12,02,56,12.90
2017,07,12,02,57,12.90
2017,07,12,02,58,12.90
2017,07,12,02,59,12.80
2017,07,12,03,00,12.80
2017,07,12,03,01,12.80
2017,07,12,03,02,12.80
2017,07,12,03,03,12.80
2017,07,12,03,04,12.80
2017,07,12,03,05,12.80
2017,07,12,03,06,12.80
2017,07,12,03,07,12.80
2017,07,12,03,08,12.80
2017,07,12,03,09,12.80
2017,07,12,03,10,12.80
2017,07,12,03,11,12.80
2017,07,12,03,12,12.80
2017,07,12,03,13,12.80
2017,07,12,03,14,12.80
2017,07,12,03,15,12.80
2017,07,12,03,16,12.80
2017,07,12,03,17,12.80
2017,07,12,03,18,12.80
2017,07,12,03,19,12.80
2017,07,12,03,20,12.80
2017,07,12,03,21,12.80
2017,07,12,03,22,12.80
2017,07,12,03,23,12.80
2017,07,12,03,24,12.80
2017,07,12,03,25,12.80
2017,07,12,03,26,12.80
2017,07,12,03,27,12.80
2017,07,12,03,28,12.80
2017,07,12,03,29,12.80
2017,07,12,03,30,12.80
2017,07,12,03,31,12.80
2017,07,12,03,32,12.80
2017,07,12,03,33,12.70
2017,07,12,03,34,12.70
2017,07,12,03,35,12.70
2017,07,12,03,36,12.70
2017,07,12,03,37,12.70
2017,07,12,03,38,12.70
2017,07,12,03,39,12.70
2017,07,12,03,40,12.70
2017,07,12,03,41,12.70
2017,07,12,03,42,12.70
2017,07,12,03,43,12.70
2017,07,12,03,44,12.60
2017,07,12,03,45,12.60
2017,07,12,03,46,12.60
2017,07,12,03,47,12.60
2017,07,12,03,48,12.60
2017,07,12,03,49,12.60
2017,07,12,03,50,12.60
2017,07,12,03,51,12.60
2017,07,12,03,52,12.60
2017,07,12,03,53,12.60
2017,07,12,03,54,12.60
2017,07,12,03,55,12.60
2017,07,12,03,56,12.60
2017,07,12,03,57,12.60
2017,07,12,03,58,12.60
2017,07,12,03,59,12.60
2017,07,12,04,00,12.60
2017,07,12,04,01,12.60
2017,07,12,04,02,12.60
2017,07,12,04,03,12.60
2017,07,12,05,04,12.40
2017,07,12,05,05,12.30
2017,07,12,05,06,12.30
2017,07,12,05,07,12.30
2017,07,12,05,08,12.30
2017,07,12,05,09,12.30
2017,07,12,05,10,12.30
2017,07,12,05,11,12.30
2017,07,12,05,12,12.30
2017,07,12,05,13,12.30
2017,07,12,05,14,12.30
2017,07,12,05,15,12.30
2017,07,12,05,16,12.20
2017,07,12,05,17,12.20
2017,07,12,05,18,12.20
2017,07,12,05,19,12.20
2017,07,12,05,20,12.20
2017,07,12,05,21,12.20
2017,07,12,05,22,12.20
2017,07,12,05,23,12.20
2017,07,12,05,24,12.20
2017,07,12,05,25,12.20
2017,07,12,05,26,12.20
2017,07,12,05,27,12.20
2017,07,12,05,28,12.20
2017,07,12,05,29,12.20
2017,07,12,05,30,12.20
2017,07,12,05,31,12.20
2017,07,12,05,32,12.20
2017,07,12,05,33,12.20
2017,07,12,05,34,12.20
2017,07,12,05,35,12.20
2017,07,12,05,36,12.20
2017,07,12,05,37,12.30
2017,07,12,05,38,12.30
2017,07,12,05,39,12.30
2017,07,12,05,40,12.30
2017,07,12,05,41,12.30
2017,07,12,05,42,12.30
2017,07,12,05,43,12.30
2017,07,12,05,44,12.30
2017,07,12,05,45,12.30
2017,07,12,05,46,12.30
2017,07,12,05,47,12.30
2017,07,12,05,48,12.40
2017,07,12,05,49,12.30
2017,07,12,05,50,12.30
2017,07,12,05,51,12.30
2017,07,12,05,52,12.40
2017,07,12,05,53,12.40
2017,07,12,05,54,12.40
2017,07,12,05,55,12.40
2017,07,12,05,56,12.40
2017,07,12,05,57,12.40
2017,07,12,05,58,12.40
2017,07,12,05,59,12.50
2017,07,12,06,00,12.50
2017,07,12,06,01,12.50
2017,07,12,06,02,12.50
2017,07,12,06,03,12.50
2017,07,12,06,04,12.60
2017,07,12,06,05,12.60
2017,07,12,06,06,12.60
2017,07,12,06,07,12.60
2017,07,12,06,08,12.60
2017,07,12,06,09,12.60
2017,07,12,06,10,12.70
2017,07,12,06,11,12.70
2017,07,12,06,12,12.70
2017,07,12,06,13,12.70
2017,07,12,06,14,12.70
2017,07,12,06,15,12.70
2017,07,12,06,16,12.70
2017,07,12,06,17,12.70
2017,07,12,06,18,12.70
2017,07,12,06,19,12.70
2017,07,12,06,20,12.70
2017,07,12,06,21,12.80
2017,07,12,06,22,12.80
2017,07,12,06,23,12.80
2017,07,12,06,24,12.80
2017,07,12,06,25,12.80
2017,07,12,06,26,12.80
2017,07,12,06,27,12.80
2017,07,12,06,28,12.80
2017,07,12,06,29,12.80
2017,07,12,06,30,12.80
2017,07,12,06,31,12.80
2017,07,12,06,32,12.80
2017,07,12,06,33,12.80
2017,07,12,06,34,12.90
2017,07,12,06,35,12.90
2017,07,12,06,36,12.90
2017,07,12,06,37,12.90
2017,07,12,06,38,12.90
2017,07,12,06,39,13.00
2017,07,12,06,40,13.00
2017,07,12,06,41,13.10
2017,07,12,06,42,13.10
2017,07,12,06,43,13.10
2017,07,12,06,44,13.20
2017,07,12,06,45,13.20
2017,07,12,06,46,13.30
2017,07,12,06,47,13.30
2017,07,12,06,48,13.30
2017,07,12,06,49,13.30
2017,07,12,06,50,13.40
2017,07,12,06,51,13.40
2017,07,12,06,52,13.40
2017,07,12,06,53,13.40
2017,07,12,06,54,13.40
2017,07,12,06,55,13.50
2017,07,12,06,56,13.50
2017,07,12,06,57,13.50
2017,07,12,06,58,13.60
2017,07,12,06,59,13.60
2017,07,12,07,00,13.60
2017,07,12,07,01,13.70
2017,07,12,07,02,13.70
2017,07,12,07,03,13.80
2017,07,12,07,04,13.80
2017,07,12,07,05,13.80
2017,07,12,07,06,13.80
2017,07,12,07,07,13.80
2017,07,12,07,08,13.80
2017,07,12,07,09,13.80
2017,07,12,07,10,13.90
2017,07,12,07,11,13.90
2017,07,12,07,12,13.90
2017,07,12,07,13,13.90
2017,07,12,07,14,13.90
2017,07,12,07,15,13.90
2017,07,12,07,16,14.00
2017,07,12,07,17,14.00
2017,07,12,07,18,14.10
2017,07,12,07,19,14.10
2017,07,12,07,20,14.20
2017,07,12,07,21,14.20
2017,07,12,07,22,14.20
2017,07,12,07,23,14.30
2017,07,12,07,24,14.30
2017,07,12,07,25,14.30
2017,07,12,07,26,14.40
2017,07,12,07,27,14.40
2017,07,12,07,28,14.40
2017,07,12,07,29,14.40
2017,07,12,07,30,14.40
2017,07,12,07,31,14.50
2017,07,12,07,32,14.50
2017,07,12,07,33,14.60
2017,07,12,07,34,14.60
2017,07,12,07,35,14.70
2017,07,12,07,36,14.70
2017,07,12,07,37,14.70
2017,07,12,07,38,14.70
2017,07,12,07,39,14.70
2017,07,12,07,40,14.70
2017,07,12,07,41,14.70
2017,07,12,07,42,14.70
2017,07,12,07,43,14.70
2017,07,12,07,44,14.70
2017,07,12,07,45,14.70
2017,07,12,07,46,14.70
2017,07,12,07,47,14.80
2017,07,12,07,48,14.80
2017,07,12,07,49,14.80
2017,07,12,07,50,14.80
2017,07,12,07,51,14.80
2017,07,12,07,52,14.80
2017,07,12,07,53,14.90
2017,07,12,07,54,14.90
2017,07,12,07,55,14.90
2017,07,12,07,56,15.00
2017,07,12,07,57,15.00
2017,07,12,07,58,15.00
2017,07,12,07,59,15.00
2017,07,12,08,00,15.00
2017,07,12,08,01,15.10
2017,07,12,08,02,15.10
2017,07,12,08,03,15.10
2017,07,12,08,04,15.10
2017,07,12,08,05,15.10
2017,07,12,08,06,15.20
2017,07,12,08,07,15.20
2017,07,12,08,08,15.20
2017,07,12,08,09,15.30
2017,07,12,08,10,15.30
2017,07,12,08,11,15.30
2017,07,12,08,12,15.30
2017,07,12,08,13,15.30
2017,07,12,08,14,15.40
2017,07,12,08,15,15.40
2017,07,12,08,16,15.40
2017,07,12,08,17,15.50
2017,07,12,08,18,15.50
2017,07,12,08,19,15.50
2017,07,12,08,20,15.60
2017,07,12,08,21,15.60
2017,07,12,08,22,15.60
2017,07,12,08,23,15.60
2017,07,12,08,24,15.60
2017,07,12,08,25,15.60
2017,07,12,08,26,15.60
2017,07,12,08,27,15.60
2017,07,12,08,28,15.60
2017,07,12,08,29,15.70
2017,07,12,08,30,15.70
2017,07,12,08,31,15.70
2017,07,12,08,32,15.80
2017,07,12,08,33,15.80
2017,07,12,08,34,15.80
2017,07,12,08,35,15.80
2017,07,12,08,36,15.80
2017,07,12,08,37,15.90
2017,07,12,08,38,15.90
2017,07,12,08,39,15.90
2017,07,12,08,40,16.00
2017,07,12,08,41,16.00
2017,07,12,08,42,16.00
2017,07,12,08,43,16.00
2017,07,12,08,44,16.00
2017,07,12,08,45,16.00
2017,07,12,08,46,16.00
2017,07,12,08,47,16.10
2017,07,12,08,48,16.10
2017,07,12,08,49,16.10
2017,07,12,08,50,16.20
2017,07,12,08,51,16.20
2017,07,12,08,52,16.20
2017,07,12,08,53,16.20
2017,07,12,08,54,16.20
2017,07,12,08,55,16.20
2017,07,12,08,56,16.30
2017,07,12,08,57,16.30
2017,07,12,08,58,16.30
2017,07,12,08,59,16.40
2017,07,12,09,00,16.40
2017,07,12,09,01,16.40
2017,07,12,09,02,16.40
2017,07,12,09,03,16.50
2017,07,12,09,04,16.50
2017,07,12,09,05,16.50
2017,07,12,09,06,16.50
2017,07,12,09,07,16.60
2017,07,12,09,08,16.60
2017,07,12,09,09,16.60
2017,07,12,09,10,16.70
2017,07,12,09,11,16.70
2017,07,12,09,12,16.80
2017,07,12,09,13,16.80
2017,07,12,09,14,16.80
2017,07,12,09,15,16.80
2017,07,12,09,16,16.80
2017,07,12,09,17,16.90
2017,07,12,09,18,16.90
2017,07,12,09,19,16.90
2017,07,12,09,20,16.90
2017,07,12,09,21,17.00
2017,07,12,09,22,17.00
2017,07,12,09,23,17.10
2017,07,12,09,24,17.10
2017,07,12,09,25,17.20
2017,07,12,09,26,17.20
2017,07,12,09,27,17.20
2017,07,12,09,28,17.20
2017,07,12,09,29,17.30
2017,07,12,09,30,17.30
2017,07,12,09,31,17.40
2017,07,12,09,32,17.40
2017,07,12,09,33,17.40
2017,07,12,09,34,17.30
2017,07,12,09,35,17.30
2017,07,12,09,36,17.30
2017,07,12,09,37,17.30
2017,07,12,09,38,17.20
2017,07,12,09,39,17.20
2017,07,12,09,40,17.10
2017,07,12,09,41,17.10
2017,07,12,09,42,17.10
2017,07,12,09,43,17.20
2017,07,12,09,44,17.20
2017,07,12,09,45,17.20
2017,07,12,09,46,17.20
2017,07,12,09,47,17.30
2017,07,12,09,48,17.30
2017,07,12,09,49,17.30
2017,07,12,09,50,17.20
2017,07,12,09,51,17.20
2017,07,12,09,52,17.20
2017,07,12,09,53,17.20
2017,07,12,09,54,17.20
2017,07,12,09,55,17.20
2017,07,12,09,56,17.30
2017,07,12,09,57,17.30
2017,07,12,09,58,17.30
2017,07,12,09,59,17.40
2017,07,12,10,00,17.40
2017,07,12,10,01,17.50
2017,07,12,10,02,17.60
2017,07,12,10,03,17.60
2017,07,12,10,04,17.60
2017,07,12,10,05,17.60
2017,07,12,10,06,17.50
2017,07,12,10,07,17.60
2017,07,12,10,08,17.60
2017,07,12,10,09,17.60
2017,07,12,10,10,17.60
2017,07,12,10,11,17.60
2017,07,12,10,12,17.60
2017,07,12,10,13,17.70
2017,07,12,10,14,17.70
2017,07,12,10,15,17.70
2017,07,12,10,16,17.70
2017,07,12,10,17,17.70
2017,07,12,10,18,17.80
2017,07,12,10,19,17.80
2017,07,12,10,20,17.90
2017,07,12,10,21,17.90
2017,07,12,10,22,17.90
2017,07,12,10,23,17.90
2017,07,12,10,24,17.90
2017,07,12,10,25,18.00
2017,07,12,10,26,18.00
2017,07,12,10,27,18.00
2017,07,12,10,28,18.10
2017,07,12,10,29,18.20
2017,07,12,10,30,18.20
2017,07,12,10,31,18.20
2017,07,12,10,32,18.20
2017,07,12,10,33,18.30
2017,07,12,10,34,18.40
2017,07,12,10,35,18.50
2017,07,12,10,36,18.60
2017,07,12,10,37,18.60
2017,07,12,10,38,18.70
2017,07,12,10,39,18.60
2017,07,12,10,40,18.60
2017,07,12,10,41,18.70
2017,07,12,10,42,18.70
2017,07,12,10,43,18.70
2017,07,12,10,44,18.70
2017,07,12,10,45,18.60
2017,07,12,10,46,18.50
2017,07,12,10,47,18.50
2017,07,12,10,48,18.50
2017,07,12,10,49,18.40
2017,07,12,10,50,18.50
2017,07,12,10,51,18.50
2017,07,12,10,52,18.40
2017,07,12,10,53,18.40
2017,07,12,10,54,18.40
2017,07,12,10,55,18.40
2017,07,12,10,56,18.40
2017,07,12,10,57,18.40
2017,07,12,10,58,18.40
2017,07,12,10,59,18.50
2017,07,12,11,00,18.60
2017,07,12,11,01,18.60
2017,07,12,11,02,18.70
2017,07,12,11,03,18.80
2017,07,12,11,04,18.90
2017,07,12,11,05,19.00
2017,07,12,11,06,19.10
2017,07,12,11,07,19.20
2017,07,12,11,08,19.30
2017,07,12,11,09,19.30
2017,07,12,11,10,19.20
2017,07,12,11,11,19.20
2017,07,12,11,12,19.20
2017,07,12,11,13,19.20
2017,07,12,11,14,19.20
2017,07,12,11,15,19.20
2017,07,12,11,16,19.20
2017,07,12,11,17,19.30
2017,07,12,11,18,19.30
2017,07,12,11,19,19.40
2017,07,12,11,20,19.40
2017,07,12,11,21,19.30
2017,07,12,11,22,19.30
2017,07,12,11,23,19.30
2017,07,12,11,24,19.30
2017,07,12,11,25,19.40
2017,07,12,11,26,19.40
2017,07,12,11,27,19.40
2017,07,12,11,28,19.40
2017,07,12,11,29,19.30
2017,07,12,11,30,19.30
2017,07,12,11,31,19.30
2017,07,12,11,32,19.20
2017,07,12,11,33,19.30
2017,07,12,11,34,19.30
2017,07,12,11,35,19.30
2017,07,12,11,36,19.30
2017,07,12,11,37,19.30
2017,07,12,11,38,19.30
2017,07,12,11,39,19.30
2017,07,12,11,40,19.30
2017,07,12,11,41,19.30
2017,07,12,11,42,19.20
2017,07,12,11,43,19.20
2017,07,12,11,44,19.30
2017,07,12,11,45,19.30
2017,07,12,11,46,19.20
2017,07,12,11,47,19.20
2017,07,12,11,48,19.30
2017,07,12,11,49,19.30
2017,07,12,11,50,19.30
2017,07,12,11,51,19.30
2017,07,12,11,52,19.30
2017,07,12,11,53,19.30
2017,07,12,11,54,19.30
2017,07,12,11,55,19.30
2017,07,12,11,56,19.40
2017,07,12,11,57,19.50
2017,07,12,11,58,19.60
2017,07,12,11,59,19.70
2017,07,12,12,00,19.70
2017,07,12,12,01,19.70
2017,07,12,12,02,19.70
2017,07,12,12,03,19.80
2017,07,12,12,04,19.80
2017,07,12,12,05,19.90
2017,07,12,12,06,20.00
2017,07,12,12,07,20.10
2017,07,12,12,08,20.20
2017,07,12,12,09,20.30
2017,07,12,12,10,20.30
2017,07,12,12,11,20.40
2017,07,12,12,12,20.40
2017,07,12,12,13,20.40
2017,07,12,12,14,20.30
2017,07,12,12,15,20.30
2017,07,12,12,16,20.30
2017,07,12,12,17,20.30
2017,07,12,12,18,20.20
2017,07,12,12,19,20.20
2017,07,12,12,20,20.30
2017,07,12,12,21,20.30
2017,07,12,12,22,20.30
2017,07,12,12,23,20.30
2017,07,12,12,24,20.40
2017,07,12,12,25,20.50
2017,07,12,12,26,20.60
2017,07,12,12,27,20.70
2017,07,12,12,28,20.70
2017,07,12,12,29,20.70
2017,07,12,12,30,20.70
2017,07,12,12,31,20.60
2017,07,12,12,32,20.70
2017,07,12,12,33,20.70
2017,07,12,12,34,20.70
2017,07,12,12,35,20.70
2017,07,12,12,36,20.60
2017,07,12,12,37,20.60
2017,07,12,12,38,20.60
2017,07,12,12,39,20.60
2017,07,12,12,40,20.60
2017,07,12,12,41,20.70
2017,07,12,12,42,20.70
2017,07,12,12,43,20.70
2017,07,12,12,44,20.80
2017,07,12,12,45,20.80
2017,07,12,12,46,20.90
2017,07,12,12,47,21.00
2017,07,12,12,48,21.00
2017,07,12,12,49,21.10
2017,07,12,12,50,21.20
2017,07,12,12,51,21.30
2017,07,12,12,52,21.30
2017,07,12,12,53,21.30
2017,07,12,12,54,21.30
2017,07,12,12,55,21.30
2017,07,12,12,56,21.30
2017,07,12,12,57,21.30
2017,07,12,12,58,21.40
2017,07,12,12,59,21.40
2017,07,12,13,00,21.40
2017,07,12,13,01,21.50
2017,07,12,13,02,21.50
2017,07,12,13,03,21.50
2017,07,12,13,04,21.50
2017,07,12,13,05,21.60
2017,07,12,13,06,21.60
2017,07,12,13,07,21.60
2017,07,12,13,08,21.70
2017,07,12,13,09,21.70
2017,07,12,13,10,21.60
2017,07,12,13,11,21.60
2017,07,12,13,12,21.60
2017,07,12,13,13,21.60
2017,07,12,13,14,21.60
2017,07,12,13,15,21.70
2017,07,12,13,16,21.70
2017,07,12,13,17,21.80
2017,07,12,13,18,21.80
2017,07,12,13,19,21.70
2017,07,12,13,20,21.60
2017,07,12,13,21,21.50
2017,07,12,13,22,21.40
2017,07,12,13,23,21.30
2017,07,12,13,24,21.30
2017,07,12,13,25,21.20
2017,07,12,13,26,21.20
2017,07,12,13,27,21.30
2017,07,12,13,28,21.30
2017,07,12,13,29,21.30
2017,07,12,13,30,21.40
2017,07,12,13,31,21.50
2017,07,12,13,32,21.60
2017,07,12,13,33,21.70
2017,07,12,13,34,21.80
2017,07,12,13,35,21.90
2017,07,12,13,36,22.00
2017,07,12,13,37,22.10
2017,07,12,13,38,22.10
2017,07,12,13,39,22.10
2017,07,12,13,40,22.10
2017,07,12,13,41,22.00
2017,07,12,13,42,21.90
2017,07,12,13,43,21.80
2017,07,12,13,44,21.70
2017,07,12,13,45,21.60
2017,07,12,13,46,21.50
2017,07,12,13,47,21.40
2017,07,12,13,48,21.40
2017,07,12,13,49,21.30
2017,07,12,13,50,21.30
2017,07,12,13,51,21.30
2017,07,12,13,52,21.30
2017,07,12,13,53,21.40
2017,07,12,13,54,21.50
2017,07,12,13,55,21.50
2017,07,12,13,56,21.60
2017,07,12,13,57,21.70
2017,07,12,13,58,21.70
2017,07,12,13,59,21.80
2017,07,12,14,00,21.80
2017,07,12,14,01,21.80
2017,07,12,14,02,21.90
2017,07,12,14,03,21.90
2017,07,12,14,04,21.90
2017,07,12,14,05,21.90
2017,07,12,14,06,21.90
2017,07,12,14,07,21.90
2017,07,12,14,08,21.90
2017,07,12,14,09,21.90
2017,07,12,14,10,21.90
2017,07,12,14,11,21.80
2017,07,12,14,12,21.80
2017,07,12,14,13,21.80
2017,07,12,14,14,21.80
2017,07,12,14,15,21.90
2017,07,12,14,16,21.90
2017,07,12,14,17,21.90
2017,07,12,14,18,21.90
2017,07,12,14,19,21.90
2017,07,12,14,20,21.90
2017,07,12,14,21,21.80
2017,07,12,14,22,21.80
2017,07,12,14,23,21.80
2017,07,12,14,24,21.80
2017,07,12,14,25,21.80
2017,07,12,14,26,21.80
2017,07,12,14,27,21.80
2017,07,12,14,28,21.90
2017,07,12,14,29,21.90
2017,07,12,14,30,21.80
2017,07,12,14,31,21.80
2017,07,12,14,32,21.80
2017,07,12,14,33,21.80
2017,07,12,14,34,21.80
2017,07,12,14,35,21.80
2017,07,12,14,36,21.80
2017,07,12,14,37,21.80
2017,07,12,14,38,21.80
2017,07,12,14,39,21.80
2017,07,12,14,40,21.80
2017,07,12,14,41,21.90
2017,07,12,14,42,21.90
2017,07,12,14,43,22.00
2017,07,12,14,44,22.10
2017,07,12,14,45,22.20
2017,07,12,14,46,22.20
2017,07,12,14,47,22.20
2017,07,12,14,48,22.30
2017,07,12,14,49,22.30
2017,07,12,14,50,22.30
2017,07,12,14,51,22.30
2017,07,12,14,52,22.30
2017,07,12,14,53,22.30
2017,07,12,14,54,22.30
2017,07,12,14,55,22.30
2017,07,12,14,56,22.30
2017,07,12,14,57,22.40
2017,07,12,14,58,22.60
2017,07,12,14,59,22.70
2017,07,12,15,00,22.70
2017,07,12,15,01,22.70
2017,07,12,15,02,22.70
2017,07,12,15,03,22.60
2017,07,12,15,04,22.50
2017,07,12,15,05,22.50
2017,07,12,15,06,22.40
2017,07,12,15,07,22.40
2017,07,12,15,08,22.50
2017,07,12,15,09,22.60
2017,07,12,15,10,22.60
2017,07,12,15,11,22.70
2017,07,12,15,12,22.70
2017,07,12,15,13,22.70
2017,07,12,15,14,22.70
2017,07,12,15,15,22.70
2017,07,12,15,16,22.70
2017,07,12,15,17,22.60
2017,07,12,15,18,22.50
2017,07,12,15,19,22.50
2017,07,12,15,20,22.50
2017,07,12,15,21,22.50
2017,07,12,15,22,22.60
2017,07,12,15,23,22.60
2017,07,12,15,24,22.60
2017,07,12,15,25,22.50
2017,07,12,15,26,22.50
2017,07,12,15,27,22.50
2017,07,12,15,28,22.40
2017,07,12,15,29,22.40
2017,07,12,15,30,22.50
2017,07,12,15,31,22.50
2017,07,12,15,32,22.50
2017,07,12,15,33,22.50
2017,07,12,15,34,22.50
2017,07,12,15,35,22.40
2017,07,12,15,36,22.40
2017,07,12,15,37,22.40
2017,07,12,15,38,22.30
2017,07,12,15,39,22.30
2017,07,12,15,40,22.30
2017,07,12,15,41,22.30
2017,07,12,15,42,22.40
2017,07,12,15,43,22.50
2017,07,12,15,44,22.60
2017,07,12,15,45,22.70
2017,07,12,15,46,22.80
2017,07,12,15,47,22.90
2017,07,12,15,48,22.90
2017,07,12,15,49,23.00
2017,07,12,15,50,23.10
2017,07,12,15,51,23.10
2017,07,12,15,52,23.10
2017,07,12,15,53,23.10
2017,07,12,15,54,23.00
2017,07,12,15,55,22.90
2017,07,12,15,56,22.90
2017,07,12,15,57,22.90
2017,07,12,15,58,22.90
2017,07,12,15,59,22.90
2017,07,12,16,00,23.00
2017,07,12,16,01,23.00
2017,07,12,16,02,23.00
2017,07,12,16,03,23.00
2017,07,12,16,04,23.00
2017,07,12,16,05,23.00
2017,07,12,16,06,22.90
2017,07,12,16,07,22.90
2017,07,12,16,08,22.90
2017,07,12,16,09,22.90
2017,07,12,17,04,21.70
2017,07,12,17,05,21.70
2017,07,12,17,06,21.60
2017,07,12,17,07,21.50
2017,07,12,17,08,21.40
2017,07,12,17,09,21.40
2017,07,12,17,10,21.40
2017,07,12,17,11,21.40
2017,07,12,17,12,21.50
2017,07,12,17,13,21.50
2017,07,12,17,14,21.60
2017,07,12,17,15,21.60
2017,07,12,17,16,21.70
2017,07,12,17,17,21.70
2017,07,12,17,18,21.80
2017,07,12,17,19,21.80
2017,07,12,17,20,21.80
2017,07,12,17,21,21.90
2017,07,12,17,22,21.90
2017,07,12,17,23,21.90
2017,07,12,17,24,21.90
2017,07,12,17,25,21.80
2017,07,12,17,26,21.80
2017,07,12,17,27,21.70
2017,07,12,17,28,21.70
2017,07,12,17,29,21.60
2017,07,12,17,30,21.60
2017,07,12,17,31,21.60
2017,07,12,17,32,21.70
2017,07,12,17,33,21.70
2017,07,12,17,34,21.80
2017,07,12,17,35,21.80
2017,07,12,17,36,21.90
2017,07,12,17,37,21.90
2017,07,12,17,38,21.90
2017,07,12,17,39,21.90
2017,07,12,17,40,21.90
2017,07,12,17,41,21.90
2017,07,12,17,42,21.90
2017,07,12,17,43,21.80
2017,07,12,17,44,21.90
2017,07,12,17,45,21.90
2017,07,12,17,46,21.90
2017,07,12,17,47,21.90
2017,07,12,17,48,21.90
2017,07,12,17,49,21.80
2017,07,12,17,50,21.80
2017,07,12,17,51,21.80
2017,07,12,17,52,21.70
2017,07,12,17,53,21.70
2017,07,12,17,54,21.80
2017,07,12,17,55,21.80
2017,07,12,17,56,21.70
2017,07,12,17,57,21.70
2017,07,12,17,58,21.70
2017,07,12,17,59,21.70
2017,07,12,18,00,21.80
2017,07,12,18,01,21.80
2017,07,12,18,02,21.80
2017,07,12,18,03,21.90
2017,07,12,18,04,21.90
2017,07,12,18,05,21.90
2017,07,12,18,06,21.90
2017,07,12,18,07,21.90
2017,07,12,18,08,21.90
2017,07,12,18,09,21.90
2017,07,12,18,10,21.90
2017,07,12,18,11,21.80
2017,07,12,18,12,21.90
2017,07,12,18,13,21.80
2017,07,12,18,14,21.90
2017,07,12,18,15,21.90
2017,07,12,18,16,21.90
2017,07,12,18,17,22.00
2017,07,12,18,18,22.10
2017,07,12,18,19,22.10
2017,07,12,18,20,22.10
2017,07,12,18,21,22.00
2017,07,12,18,22,22.10
2017,07,12,18,23,22.10
2017,07,12,18,24,22.10
2017,07,12,18,25,22.10
2017,07,12,18,26,22.10
2017,07,12,18,27,22.20
2017,07,12,18,28,22.20
2017,07,12,18,29,22.20
2017,07,12,18,30,22.20
2017,07,12,18,31,22.20
2017,07,12,18,32,22.20
2017,07,12,18,33,22.20
2017,07,12,18,34,22.10
2017,07,12,18,35,22.10
2017,07,12,18,36,22.10
2017,07,12,18,37,22.10
2017,07,12,18,38,22.10
2017,07,12,18,39,22.10
2017,07,12,18,40,22.00
2017,07,12,18,41,22.00
2017,07,12,18,42,22.00
2017,07,12,18,43,22.00
2017,07,12,18,44,22.00
2017,07,12,18,45,22.00
2017,07,12,18,46,22.00
2017,07,12,18,47,22.00
2017,07,12,18,48,21.90
2017,07,12,18,49,21.90
2017,07,12,18,50,21.80
2017,07,12,18,51,21.80
2017,07,12,18,52,21.80
2017,07,12,18,53,21.80
2017,07,12,18,54,21.80
2017,07,12,18,55,21.80
2017,07,12,18,56,21.90
2017,07,12,18,57,21.90
2017,07,12,18,58,21.90
2017,07,12,18,59,21.90
2017,07,12,19,00,21.90
2017,07,12,19,01,21.90
2017,07,12,19,02,21.90
2017,07,12,19,03,21.90
2017,07,12,19,04,21.90
2017,07,12,19,05,21.90
2017,07,12,19,06,21.90
2017,07,12,19,07,21.90
2017,07,12,19,08,21.90
2017,07,12,19,09,21.80
2017,07,12,19,10,21.80
2017,07,12,19,11,21.70
2017,07,12,19,12,21.70
2017,07,12,19,13,21.80